Home   Weather   Sterling Heights   Past weeks

Flag for USA Past Weather in Sterling Heights, Michigan, USA — Yesterday and Last 2 Weeks

Now
39 °F

Light rain. Fog.


Feels Like: 34 °F
Forecast: 41 / 45 °F
Wind: 7 mph from North

Location: Selfridge Air National Guard Base

Current Time: Jan 23, 2017 at 7:45:02 am

Latest Report: Jan 23, 2017 at 6:58 am


Visibility: 5 mi

Pressure: 29.66 "Hg

Humidity: 100%

Dew Point: 39 °F

Location of Sterling HeightsLocation

Past Weather in Sterling Heights — Graph

°F

Sterling Heights Temperature Yesterday

Maximum temperature yesterday: 46 °F (at 12:58 pm)
Minimum temperature yesterday: 34 °F (at 1:23 am)
Average temperature yesterday: 39 °F

High & Low Weather Summary for the Past Weeks

 TemperatureHumidityPressure
High52 °F (Jan 12, 12:19 am)100% (Jan 10, 2:58 am)30.79 "Hg (Jan 10, 2:58 am)
Low9 °F (Jan 8, 7:58 am)52% (Jan 8, 12:58 pm)29.39 "Hg (Jan 10, 8:58 pm)
Average33 °F92%29.98 "Hg
* Reported Jan 8 6:58 am — Jan 23 6:44 am, Sterling Heights, Weather by CustomWeather, © 2017

Note: Actual official high and low records may vary slightly from our data, if they occured in-between our weather recording intervals... More about our weather records

Advertising

Sterling Heights Weather History for the Previous 24 Hours

Scroll right to see more
 ConditionsComfort  
Time TempWeatherWind HumidityBarometerVisibility
6:44 am
Mon, Jan 23
39 °FLight rain. Low clouds.5 mph100%29.64 "Hg7 mi
6:34 am39 °FLight rain. Fog.5 mph100%29.64 "Hg5 mi
6:19 am39 °FLight rain. Fog.6 mph100%29.63 "Hg2 mi
5:58 am39 °FFog.7 mph100%29.65 "Hg1 mi
5:23 am39 °FFog.5 mph100%29.62 "Hg1 mi
5:18 am39 °FFog.7 mph100%29.62 "Hg1 mi
4:58 am40 °FFog.7 mph100%29.64 "Hg1 mi
3:58 am40 °FFog.5 mph100%29.64 "Hg1 mi
3:43 am41 °FFog.5 mph100%29.62 "Hg1 mi
3:33 am41 °FFog.6 mph100%29.62 "Hg1 mi
3:23 am41 °FFog.6 mph100%29.62 "Hg1 mi
2:58 am40 °FFog.6 mph100%29.64 "Hg1 mi
2:43 am41 °FFog.6 mph100%29.62 "Hg1 mi
2:18 am41 °FFog.7 mph100%29.62 "Hg1 mi
1:58 am41 °FFog.6 mph100%29.64 "Hg3 mi
1:43 am41 °FFog.8 mph100%29.62 "Hg5 mi
1:38 am41 °FFog.8 mph100%29.62 "Hg2 mi
1:03 am41 °FFog.6 mph100%29.62 "Hg1 mi
12:13 am41 °FFog.5 mph100%29.63 "Hg1 mi
11:58 pm
Sun, Jan 22
41 °FFog.3 mph100%29.65 "Hg1 mi
11:05 pm41 °FFog.3 mph100%29.64 "Hg1 mi
10:58 pm41 °FFog.3 mph100%29.66 "Hg0 mi
9:58 pm42 °FFog.No wind100%29.65 "Hg0 mi
8:58 pm42 °FFog.3 mph100%29.63 "Hg0 mi
8:25 pm45 °FFog.6 mph100%29.61 "Hg0 mi
7:58 pm45 °FFog.5 mph100%29.63 "Hg0 mi
6:58 pm46 °FFog.No wind100%29.63 "Hg0 mi
6:23 pm46 °FFog.5 mph100%29.60 "Hg0 mi
5:58 pm46 °FFog.3 mph100%29.62 "Hg0 mi
4:58 pm45 °FFog.No wind100%29.62 "Hg0 mi
4:35 pm45 °FFog.No wind100%29.60 "Hg0 mi
3:58 pm45 °FFog.No wind100%29.62 "Hg0 mi
2:58 pm45 °FFog.No wind100%29.62 "Hg0 mi
1:58 pm45 °FFog.3 mph100%29.62 "Hg0 mi
12:58 pm46 °FFog.5 mph100%29.63 "Hg0 mi
11:58 am43 °FFog.No wind100%29.64 "Hg0 mi
11:23 am41 °FFog.No wind100%29.63 "Hg0 mi
11:07 am41 °FFog.No wind100%29.64 "Hg0 mi
10:58 am41 °FFog.No wind100%29.66 "Hg0 mi
9:58 am40 °FFog.No wind99%29.65 "Hg0 mi
9:50 am39 °FFog.No wind100%29.63 "Hg0 mi
8:21 am39 °FFog.No wind100%29.62 "Hg0 mi
7:58 am38 °FFog.No wind100%29.62 "Hg0 mi
7:31 am37 °FFog.No wind100%29.60 "Hg0 mi
Weather by CustomWeather, © 2017

See weather overviewHow to use our weather pages